Year,Month,Day,Hour,Minute,Value (Times are PST for temperature in C)
2016,08,05,00,00,14.80
2016,08,05,00,01,14.80
2016,08,05,00,02,14.80
2016,08,05,00,03,14.80
2016,08,05,00,04,14.80
2016,08,05,00,05,14.80
2016,08,05,00,06,14.80
2016,08,05,00,07,14.80
2016,08,05,00,08,14.80
2016,08,05,00,09,14.80
2016,08,05,00,10,14.80
2016,08,05,00,11,14.80
2016,08,05,00,12,14.80
2016,08,05,00,13,14.80
2016,08,05,00,14,14.80
2016,08,05,00,15,14.70
2016,08,05,00,16,14.70
2016,08,05,00,17,14.70
2016,08,05,00,18,14.70
2016,08,05,00,19,14.70
2016,08,05,00,20,14.70
2016,08,05,00,21,14.70
2016,08,05,00,22,14.70
2016,08,05,00,23,14.70
2016,08,05,00,24,14.70
2016,08,05,00,25,14.70
2016,08,05,00,26,14.60
2016,08,05,00,27,14.60
2016,08,05,00,28,14.60
2016,08,05,00,29,14.70
2016,08,05,00,30,14.70
2016,08,05,00,31,14.70
2016,08,05,00,32,14.70
2016,08,05,00,33,14.70
2016,08,05,00,34,14.70
2016,08,05,00,35,14.70
2016,08,05,00,36,14.70
2016,08,05,00,37,14.70
2016,08,05,00,38,14.80
2016,08,05,00,39,14.80
2016,08,05,00,40,14.80
2016,08,05,00,41,14.80
2016,08,05,00,42,14.80
2016,08,05,00,43,14.80
2016,08,05,00,44,14.80
2016,08,05,00,45,14.80
2016,08,05,00,46,14.80
2016,08,05,00,47,14.80
2016,08,05,00,48,14.80
2016,08,05,00,49,14.80
2016,08,05,00,50,14.80
2016,08,05,00,51,14.90
2016,08,05,00,52,14.90
2016,08,05,00,53,14.90
2016,08,05,00,54,14.90
2016,08,05,00,55,14.90
2016,08,05,00,56,14.90
2016,08,05,00,57,14.90
2016,08,05,00,58,14.90
2016,08,05,00,59,14.90
2016,08,05,01,00,14.90
2016,08,05,01,01,14.90
2016,08,05,01,02,14.90
2016,08,05,01,03,15.00
2016,08,05,01,04,15.00
2016,08,05,01,05,15.00
2016,08,05,01,06,15.10
2016,08,05,01,07,15.10
2016,08,05,01,08,15.10
2016,08,05,01,09,15.10
2016,08,05,01,10,15.10
2016,08,05,01,11,15.10
2016,08,05,01,12,15.10
2016,08,05,01,13,15.10
2016,08,05,01,14,15.20
2016,08,05,01,15,15.20
2016,08,05,01,16,15.20
2016,08,05,01,17,15.20
2016,08,05,01,18,15.20
2016,08,05,01,19,15.20
2016,08,05,01,20,15.20
2016,08,05,01,21,15.20
2016,08,05,01,22,15.20
2016,08,05,01,23,15.20
2016,08,05,01,24,15.20
2016,08,05,01,25,15.20
2016,08,05,01,26,15.20
2016,08,05,01,27,15.10
2016,08,05,01,28,15.10
2016,08,05,01,29,15.10
2016,08,05,01,30,15.00
2016,08,05,01,31,15.00
2016,08,05,01,32,14.90
2016,08,05,01,33,14.90
2016,08,05,01,34,14.80
2016,08,05,01,35,14.80
2016,08,05,01,36,14.80
2016,08,05,01,37,14.80
2016,08,05,01,38,14.80
2016,08,05,01,39,14.70
2016,08,05,01,40,14.70
2016,08,05,01,41,14.70
2016,08,05,01,42,14.70
2016,08,05,01,43,14.70
2016,08,05,01,44,14.70
2016,08,05,01,45,14.70
2016,08,05,01,46,14.70
2016,08,05,01,47,14.60
2016,08,05,01,48,14.60
2016,08,05,01,49,14.60
2016,08,05,01,50,14.60
2016,08,05,01,51,14.60
2016,08,05,01,52,14.60
2016,08,05,01,53,14.60
2016,08,05,01,54,14.60
2016,08,05,01,55,14.60
2016,08,05,01,56,14.50
2016,08,05,01,57,14.50
2016,08,05,01,58,14.50
2016,08,05,01,59,14.40
2016,08,05,02,00,14.40
2016,08,05,02,01,14.40
2016,08,05,02,02,14.40
2016,08,05,02,03,14.40
2016,08,05,02,04,14.40
2016,08,05,02,05,14.40
2016,08,05,02,06,14.30
2016,08,05,02,07,14.30
2016,08,05,02,08,14.30
2016,08,05,02,09,14.30
2016,08,05,02,10,14.30
2016,08,05,02,11,14.30
2016,08,05,02,12,14.30
2016,08,05,02,13,14.30
2016,08,05,02,14,14.30
2016,08,05,02,15,14.30
2016,08,05,02,16,14.30
2016,08,05,02,17,14.30
2016,08,05,02,18,14.20
2016,08,05,02,19,14.20
2016,08,05,02,20,14.20
2016,08,05,02,21,14.20
2016,08,05,02,22,14.20
2016,08,05,02,23,14.20
2016,08,05,02,24,14.20
2016,08,05,02,25,14.20
2016,08,05,02,26,14.10
2016,08,05,02,27,14.10
2016,08,05,02,28,14.10
2016,08,05,02,29,14.10
2016,08,05,02,30,14.10
2016,08,05,02,31,14.10
2016,08,05,02,32,14.00
2016,08,05,02,33,14.00
2016,08,05,02,34,14.00
2016,08,05,02,35,14.00
2016,08,05,02,36,13.90
2016,08,05,02,37,13.90
2016,08,05,02,38,13.90
2016,08,05,02,39,13.90
2016,08,05,02,40,13.90
2016,08,05,02,41,13.90
2016,08,05,02,42,13.90
2016,08,05,02,43,13.90
2016,08,05,02,44,13.80
2016,08,05,02,45,13.80
2016,08,05,02,46,13.80
2016,08,05,02,47,13.80
2016,08,05,02,48,13.80
2016,08,05,02,49,13.80
2016,08,05,02,50,13.80
2016,08,05,02,51,13.80
2016,08,05,02,52,13.80
2016,08,05,02,53,13.80
2016,08,05,02,54,13.80
2016,08,05,02,55,13.80
2016,08,05,02,56,13.80
2016,08,05,02,57,13.80
2016,08,05,02,58,13.80
2016,08,05,02,59,13.80
2016,08,05,03,00,13.80
2016,08,05,03,01,13.80
2016,08,05,03,02,13.80
2016,08,05,03,03,13.80
2016,08,05,03,04,13.90
2016,08,05,03,05,13.90
2016,08,05,03,06,13.90
2016,08,05,03,07,13.90
2016,08,05,03,08,13.90
2016,08,05,03,09,13.90
2016,08,05,03,10,13.90
2016,08,05,03,11,13.90
2016,08,05,03,12,13.90
2016,08,05,03,13,13.90
2016,08,05,03,14,13.90
2016,08,05,03,15,13.90
2016,08,05,03,16,13.90
2016,08,05,03,17,13.90
2016,08,05,03,18,13.80
2016,08,05,03,19,13.80
2016,08,05,03,20,13.80
2016,08,05,03,21,13.80
2016,08,05,03,22,13.80
2016,08,05,03,23,13.80
2016,08,05,03,24,13.80
2016,08,05,03,25,13.70
2016,08,05,03,26,13.70
2016,08,05,03,27,13.70
2016,08,05,03,28,13.70
2016,08,05,03,29,13.60
2016,08,05,03,30,13.60
2016,08,05,03,31,13.60
2016,08,05,03,32,13.50
2016,08,05,03,33,13.50
2016,08,05,03,34,13.50
2016,08,05,03,35,13.40
2016,08,05,03,36,13.40
2016,08,05,03,37,13.40
2016,08,05,03,38,13.30
2016,08,05,03,39,13.30
2016,08,05,03,40,13.30
2016,08,05,03,41,13.20
2016,08,05,03,42,13.20
2016,08,05,03,43,13.20
2016,08,05,03,44,13.10
2016,08,05,03,45,13.10
2016,08,05,03,46,13.10
2016,08,05,03,47,13.00
2016,08,05,03,48,13.00
2016,08,05,03,49,12.90
2016,08,05,03,50,12.90
2016,08,05,03,51,12.90
2016,08,05,03,52,12.90
2016,08,05,03,53,12.90
2016,08,05,03,54,12.90
2016,08,05,03,55,12.90
2016,08,05,03,56,12.80
2016,08,05,03,57,12.80
2016,08,05,03,58,12.80
2016,08,05,03,59,12.80
2016,08,05,04,00,12.80
2016,08,05,04,01,12.80
2016,08,05,04,02,12.80
2016,08,05,04,03,12.80
2016,08,05,04,04,12.70
2016,08,05,04,05,12.70
2016,08,05,04,06,12.70
2016,08,05,04,07,12.60
2016,08,05,04,08,12.60
2016,08,05,04,09,12.60
2016,08,05,04,10,12.50
2016,08,05,04,11,12.50
2016,08,05,04,12,12.50
2016,08,05,04,13,12.40
2016,08,05,04,14,12.40
2016,08,05,04,15,12.30
2016,08,05,04,16,12.30
2016,08,05,04,17,12.20
2016,08,05,04,18,12.20
2016,08,05,04,19,12.10
2016,08,05,04,20,12.10
2016,08,05,04,21,12.10
2016,08,05,04,22,12.00
2016,08,05,04,23,12.00
2016,08,05,04,24,12.00
2016,08,05,04,25,11.90
2016,08,05,04,26,11.90
2016,08,05,04,27,11.90
2016,08,05,04,28,11.90
2016,08,05,04,29,11.90
2016,08,05,04,30,11.80
2016,08,05,04,31,11.80
2016,08,05,04,32,11.80
2016,08,05,04,33,11.70
2016,08,05,04,34,11.70
2016,08,05,04,35,11.70
2016,08,05,04,36,11.70
2016,08,05,04,37,11.70
2016,08,05,04,38,11.60
2016,08,05,04,39,11.60
2016,08,05,04,40,11.60
2016,08,05,04,41,11.60
2016,08,05,04,42,11.60
2016,08,05,04,43,11.50
2016,08,05,04,44,11.50
2016,08,05,04,45,11.50
2016,08,05,04,46,11.50
2016,08,05,04,47,11.40
2016,08,05,04,48,11.40
2016,08,05,04,49,11.40
2016,08,05,04,50,11.40
2016,08,05,04,51,11.40
2016,08,05,04,52,11.30
2016,08,05,04,53,11.30
2016,08,05,04,54,11.30
2016,08,05,04,55,11.30
2016,08,05,04,56,11.30
2016,08,05,04,57,11.30
2016,08,05,04,58,11.30
2016,08,05,04,59,11.30
2016,08,05,05,00,11.30
2016,08,05,05,01,11.30
2016,08,05,05,02,11.30
2016,08,05,05,03,11.30
2016,08,05,05,04,11.30
2016,08,05,05,05,11.30
2016,08,05,05,06,11.20
2016,08,05,05,07,11.20
2016,08,05,05,08,11.30
2016,08,05,05,09,11.30
2016,08,05,05,10,11.30
2016,08,05,05,11,11.30
2016,08,05,05,12,11.30
2016,08,05,05,13,11.30
2016,08,05,05,14,11.30
2016,08,05,05,15,11.30
2016,08,05,05,16,11.30
2016,08,05,05,17,11.30
2016,08,05,05,18,11.30
2016,08,05,05,19,11.20
2016,08,05,05,20,11.20
2016,08,05,05,21,11.20
2016,08,05,05,22,11.10
2016,08,05,05,23,11.10
2016,08,05,05,24,11.10
2016,08,05,05,25,11.00
2016,08,05,05,26,11.00
2016,08,05,05,27,10.90
2016,08,05,05,28,10.90
2016,08,05,05,29,10.90
2016,08,05,05,30,10.90
2016,08,05,05,31,10.90
2016,08,05,05,32,10.90
2016,08,05,05,33,10.90
2016,08,05,05,34,10.90
2016,08,05,05,35,10.90
2016,08,05,05,36,10.90
2016,08,05,05,37,10.90
2016,08,05,05,38,10.90
2016,08,05,05,39,10.90
2016,08,05,05,40,10.90
2016,08,05,05,41,10.90
2016,08,05,05,42,10.90
2016,08,05,05,43,10.90
2016,08,05,05,44,10.90
2016,08,05,05,45,10.80
2016,08,05,05,46,10.80
2016,08,05,05,47,10.80
2016,08,05,05,48,10.80
2016,08,05,05,49,10.80
2016,08,05,05,50,10.80
2016,08,05,05,51,10.80
2016,08,05,05,52,10.80
2016,08,05,05,53,10.80
2016,08,05,05,54,10.80
2016,08,05,05,55,10.80
2016,08,05,05,56,10.80
2016,08,05,05,57,10.90
2016,08,05,05,58,10.90
2016,08,05,05,59,10.90
2016,08,05,06,00,10.90
2016,08,05,06,01,10.90
2016,08,05,06,02,10.90
2016,08,05,06,03,10.90
2016,08,05,06,04,10.90
2016,08,05,06,05,10.90
2016,08,05,06,06,10.90
2016,08,05,06,07,10.90
2016,08,05,06,08,10.90
2016,08,05,06,09,10.90
2016,08,05,06,10,10.90
2016,08,05,06,11,10.90
2016,08,05,06,12,11.00
2016,08,05,06,13,11.00
2016,08,05,06,14,11.00
2016,08,05,06,15,11.00
2016,08,05,06,16,11.00
2016,08,05,06,17,11.00
2016,08,05,06,18,11.00
2016,08,05,06,19,11.00
2016,08,05,06,20,11.00
2016,08,05,06,21,11.00
2016,08,05,06,22,11.00
2016,08,05,06,23,11.00
2016,08,05,06,24,11.00
2016,08,05,06,25,11.00
2016,08,05,06,26,11.00
2016,08,05,06,27,11.00
2016,08,05,06,28,11.00
2016,08,05,06,29,11.10
2016,08,05,06,30,11.10
2016,08,05,06,31,11.10
2016,08,05,06,32,11.10
2016,08,05,06,33,11.10
2016,08,05,06,34,11.10
2016,08,05,06,35,11.10
2016,08,05,06,36,11.20
2016,08,05,06,37,11.20
2016,08,05,06,38,11.20
2016,08,05,06,39,11.20
2016,08,05,06,40,11.20
2016,08,05,06,41,11.20
2016,08,05,06,42,11.20
2016,08,05,06,43,11.30
2016,08,05,06,44,11.30
2016,08,05,06,45,11.30
2016,08,05,06,46,11.30
2016,08,05,06,47,11.40
2016,08,05,06,48,11.40
2016,08,05,06,49,11.40
2016,08,05,06,50,11.40
2016,08,05,06,51,11.50
2016,08,05,06,52,11.60
2016,08,05,06,53,11.60
2016,08,05,06,54,11.70
2016,08,05,06,55,11.70
2016,08,05,06,56,11.80
2016,08,05,06,57,11.80
2016,08,05,06,58,11.80
2016,08,05,06,59,11.80
2016,08,05,07,00,11.90
2016,08,05,07,01,11.90
2016,08,05,07,02,12.00
2016,08,05,07,03,12.00
2016,08,05,07,04,12.10
2016,08,05,07,05,12.20
2016,08,05,07,06,12.20
2016,08,05,07,07,12.20
2016,08,05,07,08,12.20
2016,08,05,07,09,12.20
2016,08,05,07,10,12.30
2016,08,05,07,11,12.30
2016,08,05,07,12,12.30
2016,08,05,07,13,12.30
2016,08,05,07,14,12.30
2016,08,05,07,15,12.30
2016,08,05,07,16,12.40
2016,08,05,07,17,12.50
2016,08,05,07,18,12.50
2016,08,05,07,19,12.60
2016,08,05,07,20,12.70
2016,08,05,07,21,12.70
2016,08,05,07,22,12.80
2016,08,05,07,23,12.90
2016,08,05,07,24,12.90
2016,08,05,07,25,13.00
2016,08,05,07,26,13.10
2016,08,05,07,27,13.10
2016,08,05,07,28,13.20
2016,08,05,07,29,13.30
2016,08,05,07,30,13.40
2016,08,05,07,31,13.40
2016,08,05,07,32,13.50
2016,08,05,07,33,13.60
2016,08,05,07,34,13.70
2016,08,05,07,35,13.70
2016,08,05,07,36,13.80
2016,08,05,07,37,13.80
2016,08,05,07,38,13.80
2016,08,05,07,39,13.80
2016,08,05,07,40,13.80
2016,08,05,07,41,13.80
2016,08,05,07,42,13.80
2016,08,05,07,43,13.90
2016,08,05,07,44,13.90
2016,08,05,07,45,13.90
2016,08,05,07,46,13.90
2016,08,05,07,47,13.90
2016,08,05,07,48,13.90
2016,08,05,07,49,13.90
2016,08,05,07,50,14.00
2016,08,05,07,51,14.00
2016,08,05,07,52,14.00
2016,08,05,07,53,14.10
2016,08,05,07,54,14.10
2016,08,05,07,55,14.10
2016,08,05,07,56,14.10
2016,08,05,07,57,14.10
2016,08,05,07,58,14.10
2016,08,05,07,59,14.10
2016,08,05,08,00,14.10
2016,08,05,08,01,14.10
2016,08,05,08,02,14.10
2016,08,05,08,03,14.10
2016,08,05,08,04,14.20
2016,08,05,08,05,14.20
2016,08,05,08,06,14.30
2016,08,05,08,07,14.30
2016,08,05,08,08,14.30
2016,08,05,08,09,14.40
2016,08,05,08,10,14.40
2016,08,05,08,11,14.50
2016,08,05,08,12,14.50
2016,08,05,08,13,14.60
2016,08,05,08,14,14.70
2016,08,05,08,15,14.70
2016,08,05,08,16,14.80
2016,08,05,08,17,14.90
2016,08,05,08,18,15.00
2016,08,05,08,19,15.20
2016,08,05,08,20,15.20
2016,08,05,08,21,15.30
2016,08,05,08,22,15.30
2016,08,05,08,23,15.40
2016,08,05,08,24,15.50
2016,08,05,08,25,15.50
2016,08,05,08,26,15.50
2016,08,05,08,27,15.60
2016,08,05,08,28,15.60
2016,08,05,08,29,15.60
2016,08,05,08,30,15.60
2016,08,05,08,31,15.60
2016,08,05,08,32,15.60
2016,08,05,08,33,15.50
2016,08,05,08,34,15.50
2016,08,05,08,35,15.50
2016,08,05,08,36,15.60
2016,08,05,08,37,15.60
2016,08,05,08,38,15.60
2016,08,05,08,39,15.60
2016,08,05,08,40,15.60
2016,08,05,08,41,15.70
2016,08,05,08,42,15.70
2016,08,05,08,43,15.70
2016,08,05,08,44,15.80
2016,08,05,08,45,15.90
2016,08,05,08,46,16.00
2016,08,05,08,47,16.10
2016,08,05,08,48,16.20
2016,08,05,08,49,16.30
2016,08,05,08,50,16.40
2016,08,05,08,51,16.50
2016,08,05,08,52,16.50
2016,08,05,08,53,16.50
2016,08,05,08,54,16.50
2016,08,05,08,55,16.50
2016,08,05,08,56,16.40
2016,08,05,08,57,16.40
2016,08,05,08,58,16.40
2016,08,05,08,59,16.40
2016,08,05,09,00,16.30
2016,08,05,09,01,16.40
2016,08,05,09,02,16.30
2016,08,05,09,03,16.30
2016,08,05,09,04,16.30
2016,08,05,09,05,16.30
2016,08,05,09,06,16.30
2016,08,05,09,07,16.30
2016,08,05,09,08,16.30
2016,08,05,09,09,16.30
2016,08,05,09,10,16.30
2016,08,05,09,11,16.30
2016,08,05,09,12,16.30
2016,08,05,09,13,16.40
2016,08,05,09,14,16.40
2016,08,05,09,15,16.50
2016,08,05,09,16,16.50
2016,08,05,09,17,16.60
2016,08,05,09,18,16.60
2016,08,05,09,19,16.70
2016,08,05,09,20,16.70
2016,08,05,09,21,16.70
2016,08,05,09,22,16.70
2016,08,05,09,23,16.70
2016,08,05,09,24,16.70
2016,08,05,09,25,16.70
2016,08,05,09,26,16.70
2016,08,05,09,27,16.70
2016,08,05,09,28,16.70
2016,08,05,09,29,16.70
2016,08,05,09,30,16.70
2016,08,05,09,31,16.70
2016,08,05,09,32,16.80
2016,08,05,09,33,16.80
2016,08,05,09,34,16.90
2016,08,05,09,35,16.90
2016,08,05,09,36,17.00
2016,08,05,09,37,17.00
2016,08,05,09,38,17.00
2016,08,05,09,39,17.10
2016,08,05,09,40,17.10
2016,08,05,09,41,17.00
2016,08,05,09,42,17.00
2016,08,05,09,43,17.00
2016,08,05,09,44,17.00
2016,08,05,09,45,17.00
2016,08,05,09,46,17.00
2016,08,05,09,47,17.10
2016,08,05,09,48,17.10
2016,08,05,09,49,17.10
2016,08,05,09,50,17.10
2016,08,05,09,51,17.10
2016,08,05,09,52,17.10
2016,08,05,09,53,17.10
2016,08,05,09,54,17.00
2016,08,05,09,55,16.90
2016,08,05,09,56,16.90
2016,08,05,09,57,16.90
2016,08,05,09,58,16.90
2016,08,05,09,59,16.90
2016,08,05,10,00,16.90
2016,08,05,10,01,17.00
2016,08,05,10,02,17.10
2016,08,05,10,03,17.10
2016,08,05,10,04,17.20
2016,08,05,10,05,17.30
2016,08,05,10,06,17.30
2016,08,05,10,07,17.30
2016,08,05,10,08,17.30
2016,08,05,10,09,17.30
2016,08,05,10,10,17.30
2016,08,05,10,11,17.30
2016,08,05,10,12,17.30
2016,08,05,10,13,17.30
2016,08,05,10,14,17.40
2016,08,05,10,15,17.40
2016,08,05,10,16,17.50
2016,08,05,10,17,17.50
2016,08,05,10,18,17.40
2016,08,05,10,19,17.50
2016,08,05,10,20,17.50
2016,08,05,10,21,17.50
2016,08,05,10,22,17.60
2016,08,05,10,23,17.70
2016,08,05,10,24,17.80
2016,08,05,10,25,17.80
2016,08,05,10,26,17.80
2016,08,05,10,27,17.80
2016,08,05,10,28,17.80
2016,08,05,10,29,17.80
2016,08,05,10,30,17.80
2016,08,05,10,31,17.70
2016,08,05,10,32,17.60
2016,08,05,10,33,17.50
2016,08,05,10,34,17.50
2016,08,05,10,35,17.40
2016,08,05,10,36,17.40
2016,08,05,10,37,17.50
2016,08,05,10,38,17.50
2016,08,05,10,39,17.50
2016,08,05,10,40,17.50
2016,08,05,10,41,17.50
2016,08,05,10,42,17.40
2016,08,05,10,43,17.40
2016,08,05,10,44,17.30
2016,08,05,10,45,17.30
2016,08,05,10,46,17.30
2016,08,05,10,47,17.30
2016,08,05,10,48,17.40
2016,08,05,10,49,17.50
2016,08,05,10,50,17.60
2016,08,05,10,51,17.60
2016,08,05,10,52,17.70
2016,08,05,10,53,17.80
2016,08,05,10,54,18.00
2016,08,05,10,55,18.10
2016,08,05,10,56,18.30
2016,08,05,10,57,18.40
2016,08,05,10,58,18.40
2016,08,05,10,59,18.50
2016,08,05,11,00,18.50
2016,08,05,11,01,18.60
2016,08,05,11,02,18.60
2016,08,05,11,03,18.70
2016,08,05,11,04,18.80
2016,08,05,11,05,18.90
2016,08,05,11,06,18.90
2016,08,05,11,07,18.90
2016,08,05,11,08,18.90
2016,08,05,11,09,18.90
2016,08,05,11,10,18.80
2016,08,05,11,11,18.70
2016,08,05,11,12,18.70
2016,08,05,11,13,18.70
2016,08,05,11,14,18.70
2016,08,05,11,15,18.70
2016,08,05,11,16,18.80
2016,08,05,11,17,18.80
2016,08,05,11,18,18.80
2016,08,05,11,19,18.80
2016,08,05,11,20,18.70
2016,08,05,11,21,18.70
2016,08,05,11,22,18.60
2016,08,05,11,23,18.60
2016,08,05,11,24,18.60
2016,08,05,11,25,18.60
2016,08,05,11,26,18.60
2016,08,05,11,27,18.50
2016,08,05,11,28,18.50
2016,08,05,11,29,18.40
2016,08,05,11,30,18.40
2016,08,05,11,31,18.30
2016,08,05,11,32,18.20
2016,08,05,11,33,18.20
2016,08,05,11,34,18.20
2016,08,05,11,35,18.20
2016,08,05,11,36,18.20
2016,08,05,11,37,18.30
2016,08,05,11,38,18.40
2016,08,05,11,39,18.40
2016,08,05,11,40,18.50
2016,08,05,11,41,18.60
2016,08,05,11,42,18.70
2016,08,05,11,43,18.70
2016,08,05,11,44,18.70
2016,08,05,11,45,18.70
2016,08,05,11,46,18.70
2016,08,05,11,47,18.70
2016,08,05,11,48,18.70
2016,08,05,11,49,18.70
2016,08,05,11,50,18.70
2016,08,05,11,51,18.70
2016,08,05,11,52,18.70
2016,08,05,11,53,18.60
2016,08,05,11,54,18.60
2016,08,05,11,55,18.60
2016,08,05,11,56,18.60
2016,08,05,11,57,18.60
2016,08,05,11,58,18.60
2016,08,05,11,59,18.50
2016,08,05,12,00,18.50
2016,08,05,12,01,18.50
2016,08,05,12,02,18.50
2016,08,05,12,03,18.60
2016,08,05,12,04,18.60
2016,08,05,12,05,18.60
2016,08,05,12,06,18.70
2016,08,05,12,07,18.80
2016,08,05,12,08,18.90
2016,08,05,12,09,19.00
2016,08,05,12,10,19.10
2016,08,05,12,11,19.30
2016,08,05,12,12,19.30
2016,08,05,12,13,19.50
2016,08,05,12,14,19.60
2016,08,05,12,15,19.60
2016,08,05,12,16,19.50
2016,08,05,12,17,19.40
2016,08,05,12,18,19.30
2016,08,05,12,19,19.10
2016,08,05,12,20,19.00
2016,08,05,12,21,18.90
2016,08,05,12,22,18.90
2016,08,05,12,23,18.90
2016,08,05,12,24,18.90
2016,08,05,12,25,18.90
2016,08,05,12,26,18.90
2016,08,05,12,27,18.90
2016,08,05,12,28,18.90
2016,08,05,12,29,18.80
2016,08,05,12,30,18.80
2016,08,05,12,31,18.80
2016,08,05,12,32,18.80
2016,08,05,12,33,18.70
2016,08,05,12,34,18.70
2016,08,05,12,35,18.70
2016,08,05,12,36,18.70
2016,08,05,12,37,18.70
2016,08,05,12,38,18.70
2016,08,05,12,39,18.70
2016,08,05,12,40,18.60
2016,08,05,12,41,18.60
2016,08,05,12,42,18.50
2016,08,05,12,43,18.40
2016,08,05,12,44,18.40
2016,08,05,12,45,18.30
2016,08,05,12,46,18.20
2016,08,05,12,47,18.20
2016,08,05,12,48,18.10
2016,08,05,12,49,18.10
2016,08,05,12,50,18.10
2016,08,05,12,51,18.10
2016,08,05,12,52,18.10
2016,08,05,12,53,18.10
2016,08,05,12,54,18.10
2016,08,05,12,55,18.10
2016,08,05,12,56,18.10
2016,08,05,12,57,18.10
2016,08,05,12,58,18.10
2016,08,05,12,59,18.10
2016,08,05,13,00,18.10
2016,08,05,13,01,18.10
2016,08,05,13,02,18.10
2016,08,05,13,03,18.10
2016,08,05,13,04,18.10
2016,08,05,13,05,18.00
2016,08,05,13,06,18.00
2016,08,05,13,07,17.90
2016,08,05,13,08,17.90
2016,08,05,13,09,17.90
2016,08,05,13,10,17.90
2016,08,05,13,11,17.90
2016,08,05,13,12,17.90
2016,08,05,13,13,17.80
2016,08,05,13,14,17.80
2016,08,05,13,15,17.70
2016,08,05,13,16,17.70
2016,08,05,13,17,17.60
2016,08,05,13,18,17.60
2016,08,05,13,19,17.50
2016,08,05,13,20,17.50
2016,08,05,13,21,17.40
2016,08,05,13,22,17.40
2016,08,05,13,23,17.30
2016,08,05,13,24,17.20
2016,08,05,13,25,17.20
2016,08,05,13,26,17.10
2016,08,05,13,27,17.00
2016,08,05,13,28,17.00
2016,08,05,13,29,16.90
2016,08,05,13,30,16.80
2016,08,05,13,31,16.80
2016,08,05,13,32,16.80
2016,08,05,13,33,16.80
2016,08,05,13,34,16.80
2016,08,05,13,35,16.80
2016,08,05,13,36,16.80
2016,08,05,13,37,16.80
2016,08,05,13,38,16.80
2016,08,05,13,39,16.80
2016,08,05,13,40,16.80
2016,08,05,13,41,16.80
2016,08,05,13,42,16.80
2016,08,05,13,43,16.80
2016,08,05,13,44,16.80
2016,08,05,13,45,16.80
2016,08,05,13,46,16.80
2016,08,05,13,47,16.80
2016,08,05,13,48,16.70
2016,08,05,13,49,16.70
2016,08,05,13,50,16.70
2016,08,05,13,51,16.70
2016,08,05,13,52,16.80
2016,08,05,13,53,16.70
2016,08,05,13,54,16.70
2016,08,05,13,55,16.70
2016,08,05,13,56,16.70
2016,08,05,13,57,16.70
2016,08,05,13,58,16.80
2016,08,05,13,59,16.80
2016,08,05,14,00,16.80
2016,08,05,14,01,16.80
2016,08,05,14,02,16.80
2016,08,05,14,03,16.80
2016,08,05,14,04,16.90
2016,08,05,14,05,16.90
2016,08,05,14,06,16.90
2016,08,05,14,07,16.90
2016,08,05,14,08,16.90
2016,08,05,14,09,16.90
2016,08,05,14,10,16.90
2016,08,05,14,11,16.90
2016,08,05,14,12,17.00
2016,08,05,14,13,17.00
2016,08,05,14,14,17.00
2016,08,05,14,15,17.10
2016,08,05,14,16,17.10
2016,08,05,14,17,17.10
2016,08,05,14,18,17.20
2016,08,05,14,19,17.20
2016,08,05,14,20,17.20
2016,08,05,14,21,17.20
2016,08,05,14,22,17.20
2016,08,05,14,23,17.20
2016,08,05,14,24,17.20
2016,08,05,14,25,17.20
2016,08,05,14,26,17.30
2016,08,05,14,27,17.30
2016,08,05,14,28,17.40
2016,08,05,14,29,17.50
2016,08,05,14,30,17.50
2016,08,05,14,31,17.60
2016,08,05,14,32,17.60
2016,08,05,14,33,17.60
2016,08,05,14,34,17.60
2016,08,05,14,35,17.60
2016,08,05,14,36,17.60
2016,08,05,14,37,17.70
2016,08,05,14,38,17.80
2016,08,05,14,39,17.80
2016,08,05,14,40,17.80
2016,08,05,14,41,17.90
2016,08,05,14,42,17.90
2016,08,05,14,43,17.90
2016,08,05,14,44,17.90
2016,08,05,14,45,17.90
2016,08,05,14,46,17.80
2016,08,05,14,47,17.80
2016,08,05,14,48,17.70
2016,08,05,14,49,17.70
2016,08,05,14,50,17.70
2016,08,05,14,51,17.60
2016,08,05,14,52,17.60
2016,08,05,14,53,17.50
2016,08,05,14,54,17.50
2016,08,05,14,55,17.40
2016,08,05,14,56,17.30
2016,08,05,14,57,17.30
2016,08,05,14,58,17.20
2016,08,05,14,59,17.20
2016,08,05,15,00,17.10
2016,08,05,15,01,17.00
2016,08,05,15,02,16.90
2016,08,05,15,03,16.80
2016,08,05,15,04,16.70
2016,08,05,15,05,16.60
2016,08,05,15,06,16.50
2016,08,05,15,07,16.40
2016,08,05,15,08,16.30
2016,08,05,15,09,16.20
2016,08,05,15,10,16.10
2016,08,05,15,11,16.00
2016,08,05,15,12,16.00
2016,08,05,15,13,15.90
2016,08,05,15,14,15.80
2016,08,05,15,15,15.80
2016,08,05,15,16,15.70
2016,08,05,15,17,15.60
2016,08,05,15,18,15.50
2016,08,05,15,19,15.50
2016,08,05,15,20,15.40
2016,08,05,15,21,15.40
2016,08,05,15,22,15.30
2016,08,05,15,23,15.30
2016,08,05,15,24,15.30
2016,08,05,15,25,15.30
2016,08,05,15,26,15.20
2016,08,05,15,27,15.20
2016,08,05,15,28,15.20
2016,08,05,15,29,15.20
2016,08,05,15,30,15.20
2016,08,05,15,31,15.20
2016,08,05,15,32,15.20
2016,08,05,15,33,15.20
2016,08,05,15,34,15.20
2016,08,05,15,35,15.20
2016,08,05,15,36,15.20
2016,08,05,15,37,15.20
2016,08,05,15,38,15.20
2016,08,05,15,39,15.20
2016,08,05,15,40,15.20
2016,08,05,15,41,15.20
2016,08,05,15,42,15.20
2016,08,05,15,43,15.30
2016,08,05,15,44,15.30
2016,08,05,15,45,15.30
2016,08,05,15,46,15.30
2016,08,05,15,47,15.40
2016,08,05,15,48,15.40
2016,08,05,15,49,15.50
2016,08,05,15,50,15.60
2016,08,05,15,51,15.70
2016,08,05,15,52,15.80
2016,08,05,15,53,15.90
2016,08,05,15,54,16.00
2016,08,05,15,55,16.00
2016,08,05,15,56,16.10
2016,08,05,15,57,16.20
2016,08,05,15,58,16.20
2016,08,05,15,59,16.30
2016,08,05,16,00,16.30
2016,08,05,16,01,16.40
2016,08,05,16,02,16.50
2016,08,05,16,03,16.60
2016,08,05,16,04,16.70
2016,08,05,16,05,16.80
2016,08,05,16,06,16.90
2016,08,05,16,07,17.00
2016,08,05,16,08,17.10
2016,08,05,16,09,17.10
2016,08,05,16,10,17.20
2016,08,05,16,11,17.20
2016,08,05,16,12,17.20
2016,08,05,16,13,17.20
2016,08,05,16,14,17.20
2016,08,05,16,15,17.30
2016,08,05,16,16,17.30
2016,08,05,16,17,17.30
2016,08,05,16,18,17.40
2016,08,05,16,19,17.40
2016,08,05,16,20,17.50
2016,08,05,16,21,17.60
2016,08,05,16,22,17.60
2016,08,05,16,23,17.80
2016,08,05,16,24,17.80
2016,08,05,16,25,17.90
2016,08,05,16,26,18.00
2016,08,05,16,27,18.10
2016,08,05,16,28,18.20
2016,08,05,16,29,18.20
2016,08,05,16,30,18.30
2016,08,05,16,31,18.30
2016,08,05,16,32,18.30
2016,08,05,16,33,18.30
2016,08,05,16,34,18.30
2016,08,05,16,35,18.30
2016,08,05,16,36,18.30
2016,08,05,16,37,18.30
2016,08,05,16,38,18.30
2016,08,05,16,39,18.30
2016,08,05,16,40,18.40
2016,08,05,16,41,18.40
2016,08,05,16,42,18.40
2016,08,05,16,43,18.50
2016,08,05,16,44,18.50
2016,08,05,16,45,18.60
2016,08,05,16,46,18.60
2016,08,05,16,47,18.70
2016,08,05,16,48,18.60
2016,08,05,16,49,18.60
2016,08,05,16,50,18.60
2016,08,05,16,51,18.50
2016,08,05,16,52,18.50
2016,08,05,16,53,18.50
2016,08,05,16,54,18.40
2016,08,05,16,55,18.30
2016,08,05,16,56,18.30
2016,08,05,16,57,18.20
2016,08,05,16,58,18.10
2016,08,05,16,59,18.00
2016,08,05,17,00,18.00
2016,08,05,17,01,17.90
2016,08,05,17,02,17.90
2016,08,05,17,03,17.90
2016,08,05,17,04,17.90
2016,08,05,17,05,17.90
2016,08,05,17,06,17.90
2016,08,05,17,07,17.90
2016,08,05,17,08,17.90
2016,08,05,17,09,17.90
2016,08,05,17,10,17.90
2016,08,05,17,11,17.90
2016,08,05,17,12,17.90
2016,08,05,17,13,17.90
2016,08,05,17,14,17.90
2016,08,05,17,15,17.90
2016,08,05,17,16,17.90
2016,08,05,17,17,17.90
2016,08,05,17,18,17.80
2016,08,05,17,19,17.80